CZ-4C DEB (47535 NORAD) Tracking and Keplerian Element Data

This shows tracking and keplerian element data for the satellite.

Feedback or suggestion? Click here.




ElementValue
Catalog47535
NameCZ-4C DEB
Epoch Orbit400
Epoch Day58.94207472
Epoch Year2021
RAAN72.343
Inclination63.4057
Eccentricity0.0005234
Argument of Perigee275.5411
Mean Anonmoly84.5018
Mean Motion13.43815054
Decay Rate-9E-07
L11 47535U 21007D 21058.94207472 -.00000090 00000-0 00000-0 0 9995
L22 47535 63.4057 72.3430 0005234 275.5411 84.5018 13.43815054 4003

Live tracking and technical data element details for CZ-4C DEB (NORAD 47535). CZ-4C DEB can be tracked NOW for your location showing map with azimuth and elevation plus other details from your city location.

Track the satellite on the map from your city or location and see movement details for azimuth, elevation, latitude, longitude, range, height, and movement on the map or in text.







IsCatalogInMostPopularTable: catalog: 47535, numindb: 15
Update: records affected: 1



GetName: 47535 CZ-4C DEB

Hit Count: updated at: Tue, 13 Apr 2021 05:19:14 GMT